Year,Month,Day,Hour,Minute,Value (Times are PST for temperature in C)
2013,02,01,00,00,-0.30
2013,02,01,00,01,-0.30
2013,02,01,00,02,-0.30
2013,02,01,00,03,-0.30
2013,02,01,00,04,-0.30
2013,02,01,00,05,-0.40
2013,02,01,00,06,-0.40
2013,02,01,00,07,-0.40
2013,02,01,00,08,-0.40
2013,02,01,00,09,-0.40
2013,02,01,00,10,-0.40
2013,02,01,00,11,-0.40
2013,02,01,00,12,-0.40
2013,02,01,00,13,-0.40
2013,02,01,00,14,-0.40
2013,02,01,00,15,-0.40
2013,02,01,00,16,-0.40
2013,02,01,00,17,-0.40
2013,02,01,00,18,-0.40
2013,02,01,00,19,-0.30
2013,02,01,00,20,-0.30
2013,02,01,00,21,-0.20
2013,02,01,00,22,-0.20
2013,02,01,00,23,-0.20
2013,02,01,00,24,-0.20
2013,02,01,00,25,-0.20
2013,02,01,00,26,-0.20
2013,02,01,00,27,-0.20
2013,02,01,00,28,-0.10
2013,02,01,00,29,-0.10
2013,02,01,00,30,-0.10
2013,02,01,00,31,-0.10
2013,02,01,00,32,-0.10
2013,02,01,00,33,-0.10
2013,02,01,00,34,-0.10
2013,02,01,00,35,-0.10
2013,02,01,00,36,-0.10
2013,02,01,00,37,-3.80
2013,02,01,00,38,-3.90
2013,02,01,00,39,-11.60
2013,02,01,00,40,-14.80
2013,02,01,00,41,-17.80
2013,02,01,00,42,-17.80
2013,02,01,00,43,-17.80
2013,02,01,00,44,-17.80
2013,02,01,00,45,-17.80
2013,02,01,00,46,-17.70
2013,02,01,00,47,-17.70
2013,02,01,00,48,-17.70
2013,02,01,00,49,-17.70
2013,02,01,00,50,-17.70
2013,02,01,00,51,-17.70
2013,02,01,00,52,-17.70
2013,02,01,00,53,-17.70
2013,02,01,00,54,-17.70
2013,02,01,00,55,-17.70
2013,02,01,00,56,-17.70
2013,02,01,00,57,-17.70
2013,02,01,00,58,-17.70
2013,02,01,00,59,-17.70
2013,02,01,01,00,-17.70
2013,02,01,01,01,-17.70
2013,02,01,01,02,-17.70
2013,02,01,01,03,-17.70
2013,02,01,01,04,-17.70
2013,02,01,01,05,-17.70
2013,02,01,01,06,-17.70
2013,02,01,01,07,-17.60
2013,02,01,01,08,-17.60
2013,02,01,01,09,-17.60
2013,02,01,01,10,-17.60
2013,02,01,01,11,-17.60
2013,02,01,01,12,-17.60
2013,02,01,01,13,-17.60
2013,02,01,01,14,-17.60
2013,02,01,01,15,-17.60
2013,02,01,01,16,-17.60
2013,02,01,01,17,-17.60
2013,02,01,01,18,-17.60
2013,02,01,01,19,-17.60
2013,02,01,01,20,-17.50
2013,02,01,01,21,-17.50
2013,02,01,01,22,-17.50
2013,02,01,01,23,-17.50
2013,02,01,01,24,-17.60
2013,02,01,01,25,-17.60
2013,02,01,01,26,-17.60
2013,02,01,01,27,-17.60
2013,02,01,01,28,-17.60
2013,02,01,01,29,-17.60
2013,02,01,01,30,-17.60
2013,02,01,01,31,-17.60
2013,02,01,01,32,-17.60
2013,02,01,01,33,-17.60
2013,02,01,01,34,-17.60
2013,02,01,01,35,-17.70
2013,02,01,01,36,-17.70
2013,02,01,01,37,-17.70
2013,02,01,01,38,-17.70
2013,02,01,01,39,-17.70
2013,02,01,01,40,-17.70
2013,02,01,01,41,-17.70
2013,02,01,01,42,-17.70
2013,02,01,01,43,-17.70
2013,02,01,01,44,-17.70
2013,02,01,01,45,-17.60
2013,02,01,01,46,-17.50
2013,02,01,01,47,-17.50
2013,02,01,01,48,-17.50
2013,02,01,01,49,-17.50
2013,02,01,01,50,-17.50
2013,02,01,01,51,-17.50
2013,02,01,01,52,-17.50
2013,02,01,01,53,-17.50
2013,02,01,01,54,-17.50
2013,02,01,01,55,-17.50
2013,02,01,01,56,-17.50
2013,02,01,01,57,-17.50
2013,02,01,01,58,-17.60
2013,02,01,01,59,-17.60
2013,02,01,02,00,-17.60
2013,02,01,02,01,-17.60
2013,02,01,02,02,-17.60
2013,02,01,02,03,-17.60
2013,02,01,02,04,-17.60
2013,02,01,02,05,-17.60
2013,02,01,02,06,-17.60
2013,02,01,02,07,-17.60
2013,02,01,02,08,-17.60
2013,02,01,02,09,-17.60
2013,02,01,02,10,-17.60
2013,02,01,02,11,-17.60
2013,02,01,02,12,-17.60
2013,02,01,02,13,-17.60
2013,02,01,02,14,-17.60
2013,02,01,02,15,-17.60
2013,02,01,02,16,-17.60
2013,02,01,02,17,-17.60
2013,02,01,02,18,-17.60
2013,02,01,02,19,-17.60
2013,02,01,02,20,-17.60
2013,02,01,02,21,-17.60
2013,02,01,02,22,-17.60
2013,02,01,02,23,-17.60
2013,02,01,02,24,-17.60
2013,02,01,02,25,-17.50
2013,02,01,02,26,-17.50
2013,02,01,02,27,-17.50
2013,02,01,02,28,-17.50
2013,02,01,02,29,-17.50
2013,02,01,02,30,-17.50
2013,02,01,02,31,-17.50
2013,02,01,02,32,-17.40
2013,02,01,02,33,-17.40
2013,02,01,02,34,-17.40
2013,02,01,02,35,-17.40
2013,02,01,02,36,-17.40
2013,02,01,02,37,-17.40
2013,02,01,02,38,-17.40
2013,02,01,02,39,-17.40
2013,02,01,02,40,-17.40
2013,02,01,02,41,-17.40
2013,02,01,02,42,-17.40
2013,02,01,02,43,-17.40
2013,02,01,02,44,-17.30
2013,02,01,02,45,-17.30
2013,02,01,02,46,-17.30
2013,02,01,02,47,-17.30
2013,02,01,02,48,-17.30
2013,02,01,02,49,-17.30
2013,02,01,02,50,-17.30
2013,02,01,02,51,-17.30
2013,02,01,02,52,-17.30
2013,02,01,02,53,-17.30
2013,02,01,02,54,-17.30
2013,02,01,02,55,-17.40
2013,02,01,02,56,-17.40
2013,02,01,02,57,-17.40
2013,02,01,02,58,-17.40
2013,02,01,02,59,-17.40
2013,02,01,03,00,-17.40
2013,02,01,03,01,-17.40
2013,02,01,03,02,-17.40
2013,02,01,03,03,-17.40
2013,02,01,03,04,-17.40
2013,02,01,03,05,-17.40
2013,02,01,03,06,-17.40
2013,02,01,03,07,-17.40
2013,02,01,03,08,-17.40
2013,02,01,03,09,-17.50
2013,02,01,03,10,-17.40
2013,02,01,03,11,-17.40
2013,02,01,03,12,-17.40
2013,02,01,03,13,-17.40
2013,02,01,03,14,-17.40
2013,02,01,03,15,-17.40
2013,02,01,03,16,-17.40
2013,02,01,03,17,-17.40
2013,02,01,03,18,-17.40
2013,02,01,03,19,-17.40
2013,02,01,03,20,-17.40
2013,02,01,03,21,-17.40
2013,02,01,03,22,-17.40
2013,02,01,03,23,-17.40
2013,02,01,03,24,-17.40
2013,02,01,03,25,-17.40
2013,02,01,03,26,-17.40
2013,02,01,03,27,-17.40
2013,02,01,03,28,-17.40
2013,02,01,03,29,-17.40
2013,02,01,03,30,-17.40
2013,02,01,03,31,-17.40
2013,02,01,03,32,-17.40
2013,02,01,03,33,-17.40
2013,02,01,03,34,-17.40
2013,02,01,03,35,-17.40
2013,02,01,03,36,-17.40
2013,02,01,03,37,-17.40
2013,02,01,03,38,-17.40
2013,02,01,03,39,-17.40
2013,02,01,03,40,-17.40
2013,02,01,03,41,-17.40
2013,02,01,03,42,-17.40
2013,02,01,03,43,-17.40
2013,02,01,03,44,-17.40
2013,02,01,03,45,-17.40
2013,02,01,03,46,-17.40
2013,02,01,03,47,-17.40
2013,02,01,03,48,-17.40
2013,02,01,03,49,-17.40
2013,02,01,03,50,-17.40
2013,02,01,03,51,-17.40
2013,02,01,03,52,-17.50
2013,02,01,03,53,-17.50
2013,02,01,03,54,-17.50
2013,02,01,03,55,-17.50
2013,02,01,03,56,-17.60
2013,02,01,03,57,-17.60
2013,02,01,03,58,-17.60
2013,02,01,03,59,-17.60
2013,02,01,04,00,-17.70
2013,02,01,04,01,-17.70
2013,02,01,04,02,-17.70
2013,02,01,04,03,-17.70
2013,02,01,04,04,-17.70
2013,02,01,04,05,-17.70
2013,02,01,04,06,-17.70
2013,02,01,04,07,-17.70
2013,02,01,04,08,-17.80
2013,02,01,04,09,-17.80
2013,02,01,04,10,-16.90
2013,02,01,04,11,-17.80
2013,02,01,04,12,-6.20
2013,02,01,04,13,-0.10
2013,02,01,04,14,-0.10
2013,02,01,04,15,-0.20
2013,02,01,04,16,-0.30
2013,02,01,04,17,-0.30
2013,02,01,04,18,-0.30
2013,02,01,04,19,-0.30
2013,02,01,04,20,-0.40
2013,02,01,04,21,-0.40
2013,02,01,04,22,-0.40
2013,02,01,04,23,-0.40
2013,02,01,04,24,-0.40
2013,02,01,04,25,-0.40
2013,02,01,04,26,-0.40
2013,02,01,04,27,-0.50
2013,02,01,04,28,-0.50
2013,02,01,04,29,-0.50
2013,02,01,04,30,-0.60
2013,02,01,04,31,-0.60
2013,02,01,04,32,-0.70
2013,02,01,04,33,-0.70
2013,02,01,04,34,-0.80
2013,02,01,04,35,-0.80
2013,02,01,04,36,-0.80
2013,02,01,04,37,-0.80
2013,02,01,04,38,-0.80
2013,02,01,04,39,-0.90
2013,02,01,04,40,-0.90
2013,02,01,04,41,-0.90
2013,02,01,04,42,-0.90
2013,02,01,04,43,-0.90
2013,02,01,04,44,-0.90
2013,02,01,04,45,-0.90
2013,02,01,04,46,-0.90
2013,02,01,04,47,-0.90
2013,02,01,04,48,-0.90
2013,02,01,04,49,-0.90
2013,02,01,04,50,-0.90
2013,02,01,04,51,-0.90
2013,02,01,04,52,-0.90
2013,02,01,04,53,-0.90
2013,02,01,04,54,-0.90
2013,02,01,04,55,-0.90
2013,02,01,04,56,-0.90
2013,02,01,04,57,-0.90
2013,02,01,04,58,-0.90
2013,02,01,04,59,-0.90
2013,02,01,05,00,-0.90
2013,02,01,05,01,-0.80
2013,02,01,05,02,-0.80
2013,02,01,05,03,-0.80
2013,02,01,05,04,-0.80
2013,02,01,05,05,-0.80
2013,02,01,05,06,-0.80
2013,02,01,05,07,-0.80
2013,02,01,05,08,-0.80
2013,02,01,05,09,-0.80
2013,02,01,05,10,-0.80
2013,02,01,05,11,-0.70
2013,02,01,05,12,-0.70
2013,02,01,05,13,-0.70
2013,02,01,05,14,-0.70
2013,02,01,05,15,-0.70
2013,02,01,05,16,-0.70
2013,02,01,05,17,-0.70
2013,02,01,05,18,-0.70
2013,02,01,05,19,-0.70
2013,02,01,05,20,-0.80
2013,02,01,05,21,-0.80
2013,02,01,05,22,-0.70
2013,02,01,05,23,-0.70
2013,02,01,05,24,-0.70
2013,02,01,05,25,-0.50
2013,02,01,05,26,-0.40
2013,02,01,05,27,-0.30
2013,02,01,05,28,-0.20
2013,02,01,05,29,-10.90
2013,02,01,05,30,-17.70
2013,02,01,05,31,-17.70
2013,02,01,05,32,-17.70
2013,02,01,05,33,-17.60
2013,02,01,05,34,-17.50
2013,02,01,05,35,-17.50
2013,02,01,05,36,-17.50
2013,02,01,05,37,-17.50
2013,02,01,05,38,-17.50
2013,02,01,05,39,-17.50
2013,02,01,05,40,-17.50
2013,02,01,05,41,-17.50
2013,02,01,05,42,-17.50
2013,02,01,05,43,-17.50
2013,02,01,05,44,-17.40
2013,02,01,05,45,-17.40
2013,02,01,05,46,-17.40
2013,02,01,05,47,-17.40
2013,02,01,05,48,-17.40
2013,02,01,05,49,-17.40
2013,02,01,05,50,-17.40
2013,02,01,05,51,-17.30
2013,02,01,05,52,-17.30
2013,02,01,05,53,-17.30
2013,02,01,05,54,-17.30
2013,02,01,05,55,-17.30
2013,02,01,05,56,-17.30
2013,02,01,05,57,-17.30
2013,02,01,05,58,-17.30
2013,02,01,05,59,-17.30
2013,02,01,06,00,-17.30
2013,02,01,06,01,-17.30
2013,02,01,06,02,-17.30
2013,02,01,06,03,-17.30
2013,02,01,06,04,-17.30
2013,02,01,06,05,-17.30
2013,02,01,06,06,-17.30
2013,02,01,06,07,-17.30
2013,02,01,06,08,-17.30
2013,02,01,06,09,-17.30
2013,02,01,06,10,-17.30
2013,02,01,06,11,-17.30
2013,02,01,06,12,-17.30
2013,02,01,06,13,-17.30
2013,02,01,06,14,-17.30
2013,02,01,06,15,-17.30
2013,02,01,06,16,-17.30
2013,02,01,06,17,-17.30
2013,02,01,06,18,-17.30
2013,02,01,06,19,-17.30
2013,02,01,06,20,-17.30
2013,02,01,06,21,-17.30
2013,02,01,06,22,-17.30
2013,02,01,06,23,-17.30
2013,02,01,06,24,-17.30
2013,02,01,06,25,-17.30
2013,02,01,06,26,-17.30
2013,02,01,06,27,-17.30
2013,02,01,06,28,-17.40
2013,02,01,06,29,-17.40
2013,02,01,06,30,-17.40
2013,02,01,06,31,-17.40
2013,02,01,06,32,-17.40
2013,02,01,06,33,-17.40
2013,02,01,06,34,-17.40
2013,02,01,06,35,-17.40
2013,02,01,06,36,-17.40
2013,02,01,06,37,-17.50
2013,02,01,06,38,-17.50
2013,02,01,06,39,-17.50
2013,02,01,06,40,-17.50
2013,02,01,06,41,-17.60
2013,02,01,06,42,-17.60
2013,02,01,06,43,-17.60
2013,02,01,06,44,-17.70
2013,02,01,06,45,-17.70
2013,02,01,06,46,-17.70
2013,02,01,06,47,-17.70
2013,02,01,06,48,-17.70
2013,02,01,06,49,-17.70
2013,02,01,06,50,-17.70
2013,02,01,06,51,-17.70
2013,02,01,06,52,-17.80
2013,02,01,06,53,-17.80
2013,02,01,06,54,-17.80
2013,02,01,06,55,-17.80
2013,02,01,06,56,-17.80
2013,02,01,06,57,-17.80
2013,02,01,06,58,-17.80
2013,02,01,06,59,-17.80
2013,02,01,07,00,-17.70
2013,02,01,07,01,-17.70
2013,02,01,07,02,-17.70
2013,02,01,07,03,-17.70
2013,02,01,07,04,-17.70
2013,02,01,07,05,-17.70
2013,02,01,07,06,-17.70
2013,02,01,07,07,-17.70
2013,02,01,07,08,-17.70
2013,02,01,07,09,-17.60
2013,02,01,07,10,-17.60
2013,02,01,07,11,-17.60
2013,02,01,07,12,-17.60
2013,02,01,07,13,-17.60
2013,02,01,07,14,-17.60
2013,02,01,07,15,-17.50
2013,02,01,07,16,-17.50
2013,02,01,07,17,-17.50
2013,02,01,07,18,-17.60
2013,02,01,07,19,-17.50
2013,02,01,07,20,-17.60
2013,02,01,07,21,-17.50
2013,02,01,07,22,-17.50
2013,02,01,07,23,-17.60
2013,02,01,07,24,-17.50
2013,02,01,07,25,-17.50
2013,02,01,07,26,-17.50
2013,02,01,07,27,-17.50
2013,02,01,07,28,-17.50
2013,02,01,07,29,-17.50
2013,02,01,07,30,-17.50
2013,02,01,07,31,-17.50
2013,02,01,07,32,-17.50
2013,02,01,07,33,-17.50
2013,02,01,07,34,-17.50
2013,02,01,07,35,-17.50
2013,02,01,07,36,-17.50
2013,02,01,07,37,-17.50
2013,02,01,07,38,-17.50
2013,02,01,07,39,-17.50
2013,02,01,07,40,-17.50
2013,02,01,07,41,-17.50
2013,02,01,07,42,-17.50
2013,02,01,07,43,-17.40
2013,02,01,07,44,-17.40
2013,02,01,07,45,-17.40
2013,02,01,07,46,-17.40
2013,02,01,07,47,-17.40
2013,02,01,07,48,-17.30
2013,02,01,07,49,-17.30
2013,02,01,07,50,-17.30
2013,02,01,07,51,-17.30
2013,02,01,07,52,-17.30
2013,02,01,07,53,-17.30
2013,02,01,07,54,-17.30
2013,02,01,07,55,-17.30
2013,02,01,07,56,-17.30
2013,02,01,07,57,-17.30
2013,02,01,07,58,-17.20
2013,02,01,07,59,-17.20
2013,02,01,08,00,-17.20
2013,02,01,08,01,-17.20
2013,02,01,08,02,-17.20
2013,02,01,08,03,-17.20
2013,02,01,08,04,-17.20
2013,02,01,08,05,-17.20
2013,02,01,08,06,-17.20
2013,02,01,08,07,-17.20
2013,02,01,08,08,-17.20
2013,02,01,08,09,-17.20
2013,02,01,08,10,-17.20
2013,02,01,08,11,-17.20
2013,02,01,08,12,-17.20
2013,02,01,08,13,-17.20
2013,02,01,08,14,-17.20
2013,02,01,08,15,-17.20
2013,02,01,08,16,-17.20
2013,02,01,08,17,-17.10
2013,02,01,08,18,-17.10
2013,02,01,08,19,-17.10
2013,02,01,08,20,-17.10
2013,02,01,08,21,-17.10
2013,02,01,08,22,-17.10
2013,02,01,08,23,-17.10
2013,02,01,08,24,-17.10
2013,02,01,08,25,-17.10
2013,02,01,08,26,-17.10
2013,02,01,08,27,-17.10
2013,02,01,08,28,-17.10
2013,02,01,08,29,-17.10
2013,02,01,08,30,-17.10
2013,02,01,08,31,-17.10
2013,02,01,08,32,-17.10
2013,02,01,08,33,-17.10
2013,02,01,08,34,-17.10
2013,02,01,08,35,-17.10
2013,02,01,08,36,-17.10
2013,02,01,08,37,-17.10
2013,02,01,08,38,-17.10
2013,02,01,08,39,-17.10
2013,02,01,08,40,-17.10
2013,02,01,08,41,-17.10
2013,02,01,08,42,-17.10
2013,02,01,08,43,-17.10
2013,02,01,08,44,-17.10
2013,02,01,08,45,-17.10
2013,02,01,08,46,-17.20
2013,02,01,08,47,-17.20
2013,02,01,08,48,-17.20
2013,02,01,08,49,-17.20
2013,02,01,08,50,-17.20
2013,02,01,08,51,-17.20
2013,02,01,08,52,-17.20
2013,02,01,08,53,-17.20
2013,02,01,08,54,-17.20
2013,02,01,08,55,-17.20
2013,02,01,08,56,-17.20
2013,02,01,08,57,-17.20
2013,02,01,08,58,-17.20
2013,02,01,08,59,-17.20
2013,02,01,09,00,-17.20
2013,02,01,09,01,-17.20
2013,02,01,09,02,-17.20
2013,02,01,09,03,-17.20
2013,02,01,09,04,-17.20
2013,02,01,09,05,-17.20
2013,02,01,09,06,-17.20
2013,02,01,09,07,-17.20
2013,02,01,09,08,-17.20
2013,02,01,09,09,-17.20
2013,02,01,09,10,-17.20
2013,02,01,09,11,-17.20
2013,02,01,09,12,-17.20
2013,02,01,09,13,-17.20
2013,02,01,09,14,-17.20
2013,02,01,09,15,-17.20
2013,02,01,09,16,-17.20
2013,02,01,09,17,-17.20
2013,02,01,09,18,-17.20
2013,02,01,09,19,-17.20
2013,02,01,09,20,-17.20
2013,02,01,09,21,-17.20
2013,02,01,09,22,-17.20
2013,02,01,09,23,-17.20
2013,02,01,09,24,-17.20
2013,02,01,09,25,-17.20
2013,02,01,09,26,-17.20
2013,02,01,09,27,-17.20
2013,02,01,09,28,-17.20
2013,02,01,09,29,-17.20
2013,02,01,09,30,-17.20
2013,02,01,09,31,-17.20
2013,02,01,09,32,-17.20
2013,02,01,09,33,-17.20
2013,02,01,09,34,-17.20
2013,02,01,09,35,-17.20
2013,02,01,09,36,-17.20
2013,02,01,09,37,-17.20
2013,02,01,09,38,-17.10
2013,02,01,09,39,-17.10
2013,02,01,09,40,-17.10
2013,02,01,09,41,-17.10
2013,02,01,09,42,-17.10
2013,02,01,09,43,-17.10
2013,02,01,09,44,-17.10
2013,02,01,09,45,-17.10
2013,02,01,09,46,-17.10
2013,02,01,09,47,-17.10
2013,02,01,09,48,-17.10
2013,02,01,09,49,-17.10
2013,02,01,09,50,-17.10
2013,02,01,09,51,-17.10
2013,02,01,09,52,-17.10
2013,02,01,09,53,-17.10
2013,02,01,09,54,-17.10
2013,02,01,09,55,-17.10
2013,02,01,09,56,-17.10
2013,02,01,09,57,-17.10
2013,02,01,09,58,-17.10
2013,02,01,09,59,-17.00
2013,02,01,10,00,-17.10
2013,02,01,10,01,-17.00
2013,02,01,10,02,-17.00
2013,02,01,10,03,-17.00
2013,02,01,10,04,-17.00
2013,02,01,10,05,-17.00
2013,02,01,10,06,-17.00
2013,02,01,10,07,-17.00
2013,02,01,10,08,-16.90
2013,02,01,10,09,-16.90
2013,02,01,10,10,-16.90
2013,02,01,10,11,-16.90
2013,02,01,10,12,-16.90
2013,02,01,10,13,-16.90
2013,02,01,10,14,-16.90
2013,02,01,10,15,-16.90
2013,02,01,10,16,-16.90
2013,02,01,10,17,-16.90
2013,02,01,10,18,-16.80
2013,02,01,10,19,-16.80
2013,02,01,10,20,-16.80
2013,02,01,10,21,-16.80
2013,02,01,10,22,-16.80
2013,02,01,10,23,-16.80
2013,02,01,10,24,-16.80
2013,02,01,10,25,-16.80
2013,02,01,10,26,-16.80
2013,02,01,10,27,-16.80
2013,02,01,10,28,-16.80
2013,02,01,10,29,-16.70
2013,02,01,10,30,-16.70
2013,02,01,10,31,-16.70
2013,02,01,10,32,-16.70
2013,02,01,10,33,-16.70
2013,02,01,10,34,-16.70
2013,02,01,10,35,-16.70
2013,02,01,10,36,-16.70
2013,02,01,10,37,-16.70
2013,02,01,10,38,-16.70
2013,02,01,10,39,-16.70
2013,02,01,10,40,-16.70
2013,02,01,10,41,-16.70
2013,02,01,10,42,-16.70
2013,02,01,10,43,-16.70
2013,02,01,10,44,-16.70
2013,02,01,10,45,-16.70
2013,02,01,10,46,-16.70
2013,02,01,10,47,-16.70
2013,02,01,10,48,-16.70
2013,02,01,10,49,-16.70
2013,02,01,10,50,-16.60
2013,02,01,10,51,-16.60
2013,02,01,10,52,-16.60
2013,02,01,10,53,-16.60
2013,02,01,10,54,-16.60
2013,02,01,10,55,-16.60
2013,02,01,10,56,-16.50
2013,02,01,10,57,-16.50
2013,02,01,10,58,-16.50
2013,02,01,10,59,-16.50
2013,02,01,11,00,-16.50
2013,02,01,11,01,-16.50
2013,02,01,11,02,-16.50
2013,02,01,11,03,-16.50
2013,02,01,11,04,-16.50
2013,02,01,11,05,-16.50
2013,02,01,11,06,-16.50
2013,02,01,11,07,-16.50
2013,02,01,11,08,-16.50
2013,02,01,11,09,-16.50
2013,02,01,11,10,-16.50
2013,02,01,11,11,-16.50
2013,02,01,11,12,-16.50
2013,02,01,11,13,-16.50
2013,02,01,11,14,-16.50
2013,02,01,11,15,-16.50
2013,02,01,11,16,-16.50
2013,02,01,11,17,-16.50
2013,02,01,11,18,-16.40
2013,02,01,11,19,-16.40
2013,02,01,11,20,-16.40
2013,02,01,11,21,-16.40
2013,02,01,11,22,-16.40
2013,02,01,11,23,-16.40
2013,02,01,11,24,-16.30
2013,02,01,11,25,-16.30
2013,02,01,11,26,-16.30
2013,02,01,11,27,-16.30
2013,02,01,11,28,-16.30
2013,02,01,11,29,-16.30
2013,02,01,11,30,-16.30
2013,02,01,11,31,-16.30
2013,02,01,11,32,-16.30
2013,02,01,11,33,-16.30
2013,02,01,11,34,-16.30
2013,02,01,11,35,-16.20
2013,02,01,11,36,-16.20
2013,02,01,11,37,-16.20
2013,02,01,11,38,-16.20
2013,02,01,11,39,-16.20
2013,02,01,11,40,-16.20
2013,02,01,11,41,-16.20
2013,02,01,11,42,-16.20
2013,02,01,11,43,-16.10
2013,02,01,11,44,-16.10
2013,02,01,11,45,-16.10
2013,02,01,11,46,-16.10
2013,02,01,11,47,-16.10
2013,02,01,11,48,-16.10
2013,02,01,11,49,-16.10
2013,02,01,11,50,-16.10
2013,02,01,11,51,-16.10
2013,02,01,11,52,-16.00
2013,02,01,11,53,-16.00
2013,02,01,11,54,-16.00
2013,02,01,11,55,-16.00
2013,02,01,11,56,-16.00
2013,02,01,11,57,-16.00
2013,02,01,11,58,-16.00
2013,02,01,11,59,-16.00
2013,02,01,12,00,-16.00
2013,02,01,12,01,-16.00
2013,02,01,12,02,-16.00
2013,02,01,12,03,-16.00
2013,02,01,12,04,-16.00
2013,02,01,12,05,-16.10
2013,02,01,12,06,-16.10
2013,02,01,12,07,-16.10
2013,02,01,12,08,-16.10
2013,02,01,12,09,-16.10
2013,02,01,12,10,-16.10
2013,02,01,12,11,-16.10
2013,02,01,12,12,-16.10
2013,02,01,12,13,-16.10
2013,02,01,12,14,-16.10
2013,02,01,12,15,-16.10
2013,02,01,12,16,-16.10
2013,02,01,12,17,-16.10
2013,02,01,12,18,-16.10
2013,02,01,12,19,-16.10
2013,02,01,12,20,-16.10
2013,02,01,12,21,-16.10
2013,02,01,12,22,-16.10
2013,02,01,12,23,-16.10
2013,02,01,12,24,-16.10
2013,02,01,12,25,-16.10
2013,02,01,12,26,-16.10
2013,02,01,12,27,-16.10
2013,02,01,12,28,-16.10
2013,02,01,12,29,-16.10
2013,02,01,12,30,-16.10
2013,02,01,12,31,-16.10
2013,02,01,12,32,-16.10
2013,02,01,12,33,-16.00
2013,02,01,12,34,-16.00
2013,02,01,12,35,-16.00
2013,02,01,12,36,-16.00
2013,02,01,12,37,-16.00
2013,02,01,12,38,-16.00
2013,02,01,12,39,-15.90
2013,02,01,12,40,-15.90
2013,02,01,12,41,-15.90
2013,02,01,12,42,-15.90
2013,02,01,12,43,-15.90
2013,02,01,12,44,-15.90
2013,02,01,12,45,-15.90
2013,02,01,12,46,-15.90
2013,02,01,12,47,-15.90
2013,02,01,12,48,-15.90
2013,02,01,12,49,-15.90
2013,02,01,12,50,-15.80
2013,02,01,12,51,-15.80
2013,02,01,12,52,-15.80
2013,02,01,12,53,-15.80
2013,02,01,12,54,-15.80
2013,02,01,12,55,-15.80
2013,02,01,12,56,-15.80
2013,02,01,12,57,-15.70
2013,02,01,12,58,-15.70
2013,02,01,12,59,-15.70
2013,02,01,13,00,-15.70
2013,02,01,13,01,-15.70
2013,02,01,13,02,-15.70
2013,02,01,13,03,-15.60
2013,02,01,13,04,-15.60
2013,02,01,13,05,-15.60
2013,02,01,13,06,-15.60
2013,02,01,13,07,-15.60
2013,02,01,13,08,-15.60
2013,02,01,13,09,-15.60
2013,02,01,13,10,-15.50
2013,02,01,13,11,-15.50
2013,02,01,13,12,-15.50
2013,02,01,13,13,-15.50
2013,02,01,13,14,-15.50
2013,02,01,13,15,-15.50
2013,02,01,13,16,-15.50
2013,02,01,13,17,-15.60
2013,02,01,13,18,-15.60
2013,02,01,13,19,-15.60
2013,02,01,13,20,-15.60
2013,02,01,13,21,-15.60
2013,02,01,13,22,-15.60
2013,02,01,13,23,-15.60
2013,02,01,13,24,-15.60
2013,02,01,13,25,-15.60
2013,02,01,13,26,-15.60
2013,02,01,13,27,-15.60
2013,02,01,13,28,-15.50
2013,02,01,13,29,-15.50
2013,02,01,13,30,-15.50
2013,02,01,13,31,-15.40
2013,02,01,13,32,-15.40
2013,02,01,13,33,-15.40
2013,02,01,13,34,-15.40
2013,02,01,13,35,-15.40
2013,02,01,13,36,-15.40
2013,02,01,13,37,-15.30
2013,02,01,13,38,-15.30
2013,02,01,13,39,-15.30
2013,02,01,13,40,-15.30
2013,02,01,13,41,-15.30
2013,02,01,13,42,-15.30
2013,02,01,13,43,-15.30
2013,02,01,13,44,-15.30
2013,02,01,13,45,-15.30
2013,02,01,13,46,-15.30
2013,02,01,13,47,-15.30
2013,02,01,13,48,-15.30
2013,02,01,13,49,-15.30
2013,02,01,13,50,-15.30
2013,02,01,13,51,-15.30
2013,02,01,13,52,-15.30
2013,02,01,13,53,-15.20
2013,02,01,13,54,-15.20
2013,02,01,13,55,-15.20
2013,02,01,13,56,-15.20
2013,02,01,13,57,-15.20
2013,02,01,13,58,-15.20
2013,02,01,13,59,-15.20
2013,02,01,14,00,-15.20
2013,02,01,14,01,-15.10
2013,02,01,14,02,-15.10
2013,02,01,14,03,-15.10
2013,02,01,14,04,-15.10
2013,02,01,14,05,-15.10
2013,02,01,14,06,-15.10
2013,02,01,14,07,-15.00
2013,02,01,14,08,-15.00
2013,02,01,14,09,-14.90
2013,02,01,14,10,-14.90
2013,02,01,14,11,-14.90
2013,02,01,14,12,-14.90
2013,02,01,14,13,-14.80
2013,02,01,14,14,-14.80
2013,02,01,14,15,-14.80
2013,02,01,14,16,-14.80
2013,02,01,14,17,-14.80
2013,02,01,14,18,-14.80
2013,02,01,14,19,-14.80
2013,02,01,14,20,-14.80
2013,02,01,14,21,-14.80
2013,02,01,14,22,-14.80
2013,02,01,14,23,-14.80
2013,02,01,14,24,-14.80
2013,02,01,14,25,-14.90
2013,02,01,14,26,-14.90
2013,02,01,14,27,-14.90
2013,02,01,14,28,-14.90
2013,02,01,14,29,-14.90
2013,02,01,14,30,-15.00
2013,02,01,14,31,-15.00
2013,02,01,14,32,-15.00
2013,02,01,14,33,-15.00
2013,02,01,14,34,-15.00
2013,02,01,14,35,-15.00
2013,02,01,14,36,-15.00
2013,02,01,14,37,-15.00
2013,02,01,14,38,-15.00
2013,02,01,14,39,-15.00
2013,02,01,14,40,-15.00
2013,02,01,14,41,-14.90
2013,02,01,14,42,-14.90
2013,02,01,14,43,-14.90
2013,02,01,14,44,-14.90
2013,02,01,14,45,-14.90
2013,02,01,14,46,-14.90
2013,02,01,14,47,-14.90
2013,02,01,14,48,-14.90
2013,02,01,14,49,-14.90
2013,02,01,14,50,-14.80
2013,02,01,14,51,-14.80
2013,02,01,14,52,-14.80
2013,02,01,14,53,-14.80
2013,02,01,14,54,-14.80
2013,02,01,14,55,-14.80
2013,02,01,14,56,-14.80
2013,02,01,14,57,-14.80
2013,02,01,14,58,-14.80
2013,02,01,14,59,-14.80
2013,02,01,15,00,-14.80
2013,02,01,15,01,-14.80
2013,02,01,15,02,-14.80
2013,02,01,15,03,-14.80
2013,02,01,15,04,-14.80
2013,02,01,15,05,-14.80
2013,02,01,15,06,-14.80
2013,02,01,15,07,-14.80
2013,02,01,15,08,-14.80
2013,02,01,15,09,-14.80
2013,02,01,15,10,-14.80
2013,02,01,15,11,-14.80
2013,02,01,15,12,-14.80
2013,02,01,15,13,-14.80
2013,02,01,15,14,-14.80
2013,02,01,15,15,-14.80
2013,02,01,15,16,-14.80
2013,02,01,15,17,-14.80
2013,02,01,15,18,-14.80
2013,02,01,15,19,-14.80
2013,02,01,15,20,-14.80
2013,02,01,15,21,-14.80
2013,02,01,15,22,-14.80
2013,02,01,15,23,-14.80
2013,02,01,15,24,-14.80
2013,02,01,15,25,-14.80
2013,02,01,15,26,-14.80
2013,02,01,15,27,-14.80
2013,02,01,15,28,-14.80
2013,02,01,15,29,-14.80
2013,02,01,15,30,-14.70
2013,02,01,15,31,-14.70
2013,02,01,15,32,-14.70
2013,02,01,15,33,-14.70
2013,02,01,15,34,-14.70
2013,02,01,15,35,-14.70
2013,02,01,15,36,-14.70
2013,02,01,15,37,-14.70
2013,02,01,15,38,-14.70
2013,02,01,15,39,-14.70
2013,02,01,15,40,-14.70
2013,02,01,15,41,-14.70
2013,02,01,15,42,-14.70
2013,02,01,15,43,-14.70
2013,02,01,15,44,-14.70
2013,02,01,15,45,-14.70
2013,02,01,15,46,-14.70
2013,02,01,15,47,-14.70
2013,02,01,15,48,-14.70
2013,02,01,15,49,-14.70
2013,02,01,15,50,-14.70
2013,02,01,15,51,-14.70
2013,02,01,15,52,-14.70
2013,02,01,15,53,-14.70
2013,02,01,15,54,-14.70
2013,02,01,15,55,-14.70
2013,02,01,15,56,-14.70
2013,02,01,15,57,-14.70
2013,02,01,15,58,-14.70
2013,02,01,15,59,-14.70
2013,02,01,16,00,-14.70
2013,02,01,16,01,-14.70
2013,02,01,16,02,-14.70
2013,02,01,16,03,-14.70
2013,02,01,16,04,-14.70
2013,02,01,16,05,-14.70
2013,02,01,16,06,-14.70
2013,02,01,16,07,-14.70
2013,02,01,16,08,-14.70
2013,02,01,16,09,-14.70
2013,02,01,16,10,-14.70
2013,02,01,16,11,-14.70
2013,02,01,16,12,-14.70
2013,02,01,16,13,-14.70
2013,02,01,16,14,-14.70
2013,02,01,16,15,-14.70
2013,02,01,16,16,-14.70
2013,02,01,16,17,-14.70
2013,02,01,16,18,-14.70
2013,02,01,16,19,-14.70
2013,02,01,16,20,-14.70
2013,02,01,16,21,-14.70
2013,02,01,16,22,-14.60
2013,02,01,16,23,-14.60
2013,02,01,16,24,-14.70
2013,02,01,16,25,-14.60
2013,02,01,16,26,-14.70
2013,02,01,16,27,-14.60
2013,02,01,16,28,-14.60
2013,02,01,16,29,-14.60
2013,02,01,16,30,-14.60
2013,02,01,16,31,-14.60
2013,02,01,16,32,-14.60
2013,02,01,16,33,-14.60
2013,02,01,16,34,-14.60
2013,02,01,16,35,-14.60
2013,02,01,16,36,-14.60
2013,02,01,16,37,-14.60
2013,02,01,16,38,-14.60
2013,02,01,16,39,-14.60
2013,02,01,16,40,-14.60